This is the latest recevied weather packets stored in our database for station/object N8TWM-13. If no packets are shown the sender has not sent any weather packets the latest 10 day(s).
| Time | Temp. | Humidity | Pressure | Rain* | Wind** | Luminosity | Snow |
|---|---|---|---|---|---|---|---|
| 1788451334 | 31.67° C | 69% | 1017.2 hPa | 0 mm | - | 580 W/m² | - |
| 1788451033 | 32.22° C | 67% | 1017.1 hPa | 0 mm | - | 639 W/m² | - |
| 1788450728 | 31.67° C | 68% | 1017.2 hPa | 0 mm | - | 674 W/m² | - |
| 1788450424 | 31.67° C | 68% | 1017.1 hPa | 0 mm | - | 676 W/m² | - |
| 1788450120 | 31.11° C | 68% | 1017.2 hPa | 0 mm | - | 700 W/m² | - |
| 1788449815 | 31.11° C | 68% | 1017.4 hPa | 0 mm | - | 697 W/m² | - |
| 1788449511 | 31.11° C | 69% | 1017.3 hPa | 0 mm | - | 685 W/m² | - |
| 1788449207 | 31.11° C | 67% | 1017.2 hPa | 0 mm | - | 652 W/m² | - |
| 1788448903 | 30.56° C | 70% | 1017.2 hPa | 0 mm | - | 662 W/m² | - |
| 1788448603 | 31.11° C | 67% | 1017.5 hPa | 0 mm | - | 666 W/m² | - |
| 1788448303 | 30.56° C | 70% | 1017.4 hPa | 0 mm | - | 668 W/m² | - |
| 1788447997 | 30.56° C | 70% | 1017.2 hPa | 0 mm | - | 566 W/m² | - |
| 1788447693 | 30° C | 71% | 1017.5 hPa | 0 mm | - | 137 W/m² | - |
| 1788447392 | 30.56° C | 70% | 1017.5 hPa | 0 mm | - | 599 W/m² | - |
| 1788447087 | 30.56° C | 71% | 1017.4 hPa | 0 mm | - | 606 W/m² | - |
| 1788446786 | 30° C | 71% | 1017.5 hPa | 0 mm | - | 592 W/m² | - |
| 1788446482 | 30.56° C | 70% | 1017.8 hPa | 0 mm | - | 573 W/m² | - |
| 1788446178 | 30.56° C | 71% | 1017.9 hPa | 0 mm | - | 532 W/m² | - |
| 1788445874 | 30° C | 70% | 1017.7 hPa | 0 mm | - | 512 W/m² | - |
| 1788445569 | 30.56° C | 71% | 1017.5 hPa | 0 mm | - | 510 W/m² | - |
| 1788445266 | 30.56° C | 71% | 1017.3 hPa | 0 mm | - | 488 W/m² | - |
| 1788444961 | 30° C | 71% | 1017.3 hPa | 0 mm | - | 499 W/m² | - |
| 1788444656 | 29.44° C | 73% | 1017.3 hPa | 0 mm | - | 467 W/m² | - |
| 1788444352 | 29.44° C | 72% | 1017.2 hPa | 0 mm | - | 461 W/m² | - |
| 1788444047 | 29.44° C | 72% | 1017.3 hPa | 0 mm | - | 424 W/m² | - |
* Rain latest hour (hover to see other rain measurements)
** Current wind speed in m/s (hover to see current wind gust speed)